This is the latest recevied weather packets stored in our database for station/object N5JXS. If no packets are shown the sender has not sent any weather packets the latest 10 day(s).
| Time | Temp. | Humidity | Pressure | Rain* | Wind** | Luminosity | Snow |
|---|---|---|---|---|---|---|---|
| 1777013905 | 3.33° C | 36% | 1015.9 hPa | 0 mm | - | 0 W/m² | - |
| 1777013601 | 2.78° C | 36% | 1015.4 hPa | 0 mm | - | 0 W/m² | - |
| 1777013300 | 2.22° C | 36% | 1015.8 hPa | 0 mm | - | 0 W/m² | - |
| 1777012997 | 2.22° C | 36% | 1015.6 hPa | 0 mm | - | 0 W/m² | - |
| 1777012693 | 2.22° C | 35% | 1015.8 hPa | 0 mm | - | 0 W/m² | - |
| 1777012388 | 2.78° C | 34% | 1015.8 hPa | 0 mm | - | 0 W/m² | - |
| 1777012084 | 2.78° C | 34% | 1015.6 hPa | 0 mm | - | 0 W/m² | - |
| 1777011781 | 2.78° C | 34% | 1015.5 hPa | 0 mm | - | 0 W/m² | - |
| 1777011476 | 3.33° C | 34% | 1015.8 hPa | 0 mm | - | 0 W/m² | - |
| 1777011174 | 3.33° C | 33% | 1016 hPa | 0 mm | - | 0 W/m² | - |
| 1777010870 | 3.33° C | 33% | 1015.9 hPa | 0 mm | - | 0 W/m² | - |
| 1777010567 | 3.89° C | 33% | 1015.8 hPa | 0 mm | - | 0 W/m² | - |
| 1777010263 | 3.89° C | 32% | 1015.6 hPa | 0 mm | - | 0 W/m² | - |
| 1777009959 | 3.89° C | 32% | 1015.9 hPa | 0 mm | - | 0 W/m² | - |
| 1777009656 | 3.89° C | 31% | 1015.8 hPa | 0 mm | - | 0 W/m² | - |
| 1777009353 | 4.44° C | 31% | 1015.8 hPa | 0 mm | - | 0 W/m² | - |
| 1777009048 | 3.89° C | 31% | 1015.6 hPa | 0 mm | - | 0 W/m² | - |
| 1777008746 | 3.89° C | 30% | 1015.5 hPa | 0 mm | - | 0 W/m² | - |
| 1777008442 | 4.44° C | 29% | 1015.5 hPa | 0 mm | - | 0 W/m² | - |
| 1777008139 | 4.44° C | 29% | 1015.4 hPa | 0 mm | - | 0 W/m² | - |
| 1777007838 | 4.44° C | 28% | 1015.5 hPa | 0 mm | - | 0 W/m² | - |
| 1777007533 | 4.44° C | 28% | 1015.6 hPa | 0 mm | - | 0 W/m² | - |
* Rain latest hour (hover to see other rain measurements)
** Current wind speed in m/s (hover to see current wind gust speed)